Location: Sternwarte_Laufen
(47.9344°N, 12.9346°E)
Time: 05:11:32
(UTC+02:00)

ISS - Pass Details

Date: 20 May 2018
Orbit: 402 x 407 km, 51.6° (Epoch: 25 May)

Event Time Altitude Azimuth Distance (km) Brightness Sun altitude
Rises 03:12:34 0° 291° (WNW) 2,320 -0.1 -16.3°
Reaches altitude 10° 03:14:40 10° 295° (WNW) 1,459 -1.1 -16.2°
Maximum altitude 03:17:55 62° 17° (NNE) 459 -3.3 -15.9°
Drops below altitude 10° 03:21:09 10° 99° (E) 1,455 -0.7 -15.6°
Sets 03:23:14 0° 103° (ESE) 2,313 0.3 -15.4°
